Emigrant Gap, CA

12:52 PM PDT on September 30, 2016 (GMT -0700)
Blue Canyon-Nyack

Weather History for KBLU - December, 2011

Change the Weather History Date:

Saturday, December 10, 2011

  Actual Average Record
Temperature  
Mean Temperature 45 °F -  
Max Temperature 48 °F 46 °F 63 °F (1962)
Min Temperature 39 °F 33 °F 10 °F (1972)
Degree Days  
Heating Degree Days 20    
Moisture  
Dew Point 13 °F    
Average Humidity 28    
Maximum Humidity 47    
Minimum Humidity 15    
Precipitation  
Precipitation 0.00 in - - ()
Sea Level Pressure  
Sea Level Pressure 30.04 in    
Wind  
Wind Speed 2 mph (SSE)    
Max Wind Speed 9 mph    
Max Gust Speed -    
Visibility 10 miles    
Events      
Averages and records for this station are not official NWS values.
T = Trace of Precipitation, MM = Missing Value Source: NWS Daily Summary

Daily Weather History Graph

Daily Weather History Graph

Search for Another Location

Airport or City:

Trip Planner

Search our weather history database for the weather conditions in past years. The results will help you decide how hot, cold, wet, or windy it might be!

Date:

Astronomy

Dec. 10, 2011 Rise Set
Actual Time 7:11 AM PST 4:39 PM PST
Civil Twilight 6:41 AM PST 5:09 PM PST
Nautical Twilight 6:07 AM PST 5:43 PM PST
Astronomical Twilight 5:35 AM PST 6:15 PM PST
Moon 4:58 PM PST (12/10) 7:15 AM PST (12/10)
Length of Visible Light 10h 28m
Length of Day
9h 28m
Full, 100% of the Moon is Illuminated
Dec 10
Full
Dec 17
Last Quarter
Dec 24
New
Dec 31
First Quarter
Jan 8
Full

Hourly Weather History & Observations

Time (PST) Temp. Windchill Dew Point Humidity Pressure Visibility Wind Dir Wind Speed Gust Speed Precip Events Conditions
12:52 AM 48.9 °F - 7.0 °F 18% 30.09 in 10.0 mi Calm Calm - N/A   Clear
1:52 AM 48.9 °F - 3.0 °F 15% 30.09 in 10.0 mi Calm Calm - N/A   Clear
2:52 AM 48.0 °F - 1.9 °F 15% 30.08 in 10.0 mi Calm Calm - N/A   Clear
3:52 AM 46.9 °F - 5.0 °F 18% 30.09 in 10.0 mi Calm Calm - N/A   Clear
4:52 AM 46.0 °F 44.8 °F 5.0 °F 19% 30.09 in 10.0 mi South 3.5 mph - N/A   Clear
5:52 AM 44.1 °F - 6.1 °F 21% 30.10 in 10.0 mi Calm Calm - N/A   Clear
6:52 AM 44.1 °F 42.5 °F 6.1 °F 21% 30.10 in 10.0 mi SE 3.5 mph - N/A   Clear
7:52 AM 45.0 °F - 7.0 °F 21% 30.09 in 10.0 mi Calm Calm - N/A   Clear
8:52 AM 46.9 °F - 9.0 °F 21% 30.10 in 10.0 mi SE 4.6 mph - N/A   Clear
9:52 AM 48.0 °F - 12.0 °F 24% 30.09 in 10.0 mi South 4.6 mph - N/A   Clear
10:52 AM 48.0 °F - 10.0 °F 22% 30.08 in 10.0 mi South 8.1 mph - N/A   Clear
11:52 AM 48.9 °F - 12.9 °F 24% 30.06 in 10.0 mi SSE 5.8 mph - N/A   Clear
12:52 PM 48.9 °F - 19.0 °F 31% 30.04 in 10.0 mi South 9.2 mph - N/A   Clear
1:52 PM 48.9 °F - 19.9 °F 32% 30.01 in 10.0 mi South 4.6 mph - N/A   Clear
2:52 PM 48.0 °F - 19.0 °F 32% 30.01 in 10.0 mi South 9.2 mph - N/A   Clear
3:52 PM 46.0 °F 43.1 °F 19.9 °F 35% 30.01 in 10.0 mi South 5.8 mph - N/A   Clear
4:52 PM 43.0 °F - 24.1 °F 47% 30.02 in 10.0 mi Calm Calm - N/A   Clear
5:52 PM 42.1 °F - 21.0 °F 43% 30.03 in 10.0 mi Calm Calm - N/A   Clear
6:52 PM 42.1 °F - 19.9 °F 41% 30.02 in 10.0 mi Calm Calm - N/A   Clear
7:52 PM 42.1 °F - 18.0 °F 38% 29.99 in 10.0 mi Calm Calm - N/A   Clear
8:52 PM 42.1 °F - 15.1 °F 34% 29.97 in 10.0 mi Calm Calm - N/A   Clear
9:52 PM 43.0 °F - 16.0 °F 34% 29.95 in 10.0 mi Calm Calm - N/A   Clear
10:52 PM 43.0 °F - 15.1 °F 32% 29.94 in 10.0 mi Calm Calm - N/A   Clear
11:52 PM 39.0 °F 34.8 °F 15.1 °F 38% 29.95 in 10.0 mi South 5.8 mph - N/A   Clear